Probability
0 0 0 0 0 3 3 3 3 3 3 0 0 3 3 0 3 3 26 77 84 74 71 65 68 90 94 94 84 87 100 100 97 94 97 94 94 94 90 90 84 84 68
0 0 0 0 0 0 0 3 3 0 3 3 0 0 3 3 0 6 10 55 81 90 84 71 81 90 87 87 81 87 97 97 94 94 94 94 87 87 84 84 84 71 61
0 0 0 0 0 0 0 0 0 0 0 3 0 0 0 0 0 0 13 16 23 81 81 81 77 84 87 90 84 87 97 97 94 90 94 94 87 84 81 81 84 74 65
0 0 0 0 0 0 0 0 0 0 0 3 0 0 0 0 3 0 6 10 13 10 52 84 81 87 90 90 90 87 97 97 97 90 94 94 94 84 84 87 81 77 74
0 0 3 0 0 0 0 0 0 0 0 0 0 0 0 0 3 0 0 0 10 16 10 32 77 87 87 94 90 81 90 97 94 94 94 94 94 87 87 87 84 77 71
0 3 3 3 0 0 0 0 0 0 0 0 0 0 0 0 0 0 0 0 0 3 6 6 16 39 84 87 84 87 84 81 90 94 90 94 90 87 87 84 84 77 68
3 0 0 0 0 0 0 0 0 3 3 0 0 0 0 0 0 0 0 0 0 0 0 0 0 6 16 74 74 81 81 84 84 90 90 94 90 90 84 84 71 71 61
0 0 0 0 0 0 6 3 3 0 0 0 0 0 0 0 0 0 0 0 0 0 0 0 0 0 0 3 13 68 77 84 87 90 87 90 90 87 84 77 65 74 61
0 0 0 0 3 3 3 3 3 0 0 0 0 0 0 0 0 0 0 0 0 0 0 0 0 3 0 0 0 13 52 68 84 84 90 87 87 87 84 87 77 71 68
0 0 0 0 3 3 3 0 0 0 0 0 0 0 0 0 0 0 0 0 0 0 0 0 0 0 0 3 0 0 16 32 68 74 87 90 87 87 87 90 87 81 74
0 0 0 0 0 3 3 3 0 0 0 0 0 0 0 0 0 0 0 0 0 0 3 3 0 0 3 3 10 3 0 6 35 68 68 74 84 77 84 87 87 84 74
0 0 0 0 0 0 3 0 3 0 3 3 0 0 0 0 0 0 0 0 0 0 0 3 0 0 3 3 6 0 0 0 3 39 61 74 77 81 81 81 84 84 81
0 0 0 0 0 0 0 0 0 0 3 0 0 0 0 0 0 0 0 0 0 0 0 0 0 3 3 3 0 0 0 0 0 6 19 39 55 74 77 84 84 90 81
0 0 0 0 0 0 0 0 0 0 0 0 0 0 0 0 0 0 0 0 0 0 0 0 0 0 0 0 0 0 0 0 0 0 0 6 13 35 61 77 81 87 87
0 0 0 0 0 0 0 0 0 0 0 0 0 0 0 0 0 0 0 0 0 0 0 0 0 0 0 0 0 0 0 0 0 0 0 0 0 3 10 23 42 48 58
0 0 0 0 0 0 0 0 0 0 0 0 0 0 0 0 0 0 0 0 0 0 0 0 0 0 0 0 0 0 0 0 0 0 0 0 0 0 0 0 0 3 6
0 0 0 0 0 0 0 0 0 0 0 0 0 0 0 0 0 0 0 0 0 0 0 0 0 0 0 0 0 0 0 0 0 0 0 0 0 0 0 0 0 0 0
0 0 0 0 0 0 0 0 0 0 0 0 0 0 0 0 0 0 0 0 0 0 0 0 0 0 0 0 0 0 0 0 0 0 0 0 0 0 0 0 0 0 0
0 0 0 0 0 0 0 0 0 0 0 0 0 0 0 0 0 0 0 0 0 0 0 0 0 0 0 0 0 0 0 0 0 0 0 0 0 0 0 0 0 0 0
0 0 0 0 0 0 0 0 0 0 0 0 0 0 0 0 0 0 0 0 0 0 0 0 0 0 0 0 0 0 0 0 0 0 0 0 0 0 0 0 0 0 0
0 0 0 0 0 0 0 0 0 0 0 0 0 0 0 0 0 0 0 0 0 0 0 0 0 0 0 0 0 0 0 0 0 0 0 0 0 0 0 0 0 0 0
0 0 0 0 0 0 0 0 0 0 0 0 0 0 0 0 0 0 0 0 0 0 0 0 0 0 0 0 0 0 0 0 0 0 0 0 0 0 0 0 0 0 0
0 0 0 0 0 0 0 0 0 0 0 0 0 0 0 0 0 0 0 0 0 0 0 0 0 0 0 0 0 0 0 0 0 0 0 0 0 0 0 0 0 0 0
0 0 0 0 0 0 0 0 0 0 0 0 0 0 0 0 0 0 0 0 0 0 0 0 0 0 0 0 0 0 0 0 0 0 0 0 0 0 0 0 0 0 0
0 0 0 0 0 0 0 0 0 0 0 0 0 0 0 0 0 0 0 0 0 0 0 0 0 0 0 0 0 0 0 0 0 0 0 0 0 0 0 0 0 0 0
0 0 0 0 0 0 0 0 0 0 0 0 0 0 0 0 0 0 0 0 0 0 0 0 0 0 0 0 0 0 0 0 0 0 0 0 0 0 0 0 0 0 0
Height
5804 5803 5801 5800 5800 5800 5801 5803 5805 5807 5810 5813 5816 5820 5823 5827 5831 5834 5837 5841 5844 5847 5850 5853 5855 5858 5861 5863 5866 5869 5871 5874 5876 5879 5881 5883 5885 5887 5889 5891 5893 5894 5896
5801 5799 5798 5796 5796 5796 5796 5798 5799 5802 5805 5808 5811 5814 5818 5822 5825 5829 5833 5836 5840 5844 5847 5850 5853 5856 5858 5861 5864 5867 5869 5872 5875 5877 5880 5882 5884 5886 5888 5890 5892 5894 5896
5798 5796 5794 5793 5792 5792 5792 5793 5794 5797 5800 5803 5806 5809 5813 5816 5820 5825 5829 5832 5836 5840 5844 5847 5850 5853 5856 5858 5861 5864 5867 5870 5873 5875 5878 5880 5883 5885 5887 5889 5891 5893 5895
5795 5792 5790 5789 5788 5788 5787 5788 5789 5792 5794 5797 5801 5804 5808 5811 5815 5820 5824 5828 5832 5836 5840 5844 5847 5850 5853 5856 5859 5862 5865 5867 5870 5873 5876 5878 5881 5883 5885 5888 5890 5892 5894
5792 5790 5787 5785 5784 5784 5784 5784 5785 5788 5790 5793 5796 5799 5803 5807 5811 5815 5820 5824 5828 5832 5836 5840 5843 5847 5850 5853 5856 5859 5862 5865 5868 5871 5873 5876 5879 5881 5884 5886 5888 5891 5893
5790 5787 5785 5783 5782 5781 5781 5781 5782 5784 5786 5789 5792 5795 5799 5803 5807 5811 5815 5820 5824 5828 5832 5836 5840 5843 5847 5850 5853 5856 5859 5862 5865 5868 5871 5874 5876 5879 5881 5884 5886 5888 5891
5789 5786 5783 5781 5780 5779 5778 5778 5779 5781 5783 5785 5788 5791 5795 5798 5802 5806 5811 5815 5820 5824 5828 5832 5836 5839 5843 5846 5850 5853 5856 5859 5862 5865 5868 5871 5874 5876 5879 5881 5884 5886 5888
5788 5785 5782 5780 5778 5777 5777 5777 5777 5778 5780 5782 5785 5787 5791 5795 5798 5802 5806 5811 5816 5820 5824 5827 5831 5835 5839 5843 5846 5849 5853 5856 5859 5862 5865 5868 5871 5873 5876 5878 5881 5883 5886
5787 5784 5782 5779 5777 5776 5776 5775 5776 5777 5778 5780 5782 5784 5787 5790 5794 5799 5802 5807 5811 5815 5819 5823 5827 5831 5835 5839 5842 5846 5849 5852 5855 5858 5861 5864 5867 5870 5872 5875 5878 5880 5883
5787 5784 5781 5779 5777 5775 5775 5774 5774 5775 5776 5778 5779 5781 5784 5787 5791 5795 5798 5802 5806 5811 5814 5818 5823 5827 5830 5834 5838 5842 5845 5848 5851 5855 5857 5860 5863 5866 5869 5872 5875 5877 5879
5787 5784 5781 5778 5776 5775 5774 5773 5773 5774 5774 5775 5777 5778 5781 5784 5787 5790 5794 5798 5802 5806 5810 5814 5818 5821 5825 5830 5833 5837 5840 5844 5847 5850 5853 5856 5859 5862 5865 5868 5871 5873 5876
5787 5784 5781 5778 5776 5775 5773 5773 5772 5772 5773 5774 5775 5776 5778 5781 5783 5787 5790 5794 5798 5802 5806 5809 5813 5816 5820 5825 5828 5832 5835 5839 5842 5845 5848 5851 5855 5858 5860 5863 5866 5869 5871
5787 5784 5781 5779 5777 5775 5773 5772 5771 5771 5772 5772 5773 5774 5776 5778 5780 5783 5787 5790 5794 5798 5801 5805 5808 5812 5815 5819 5823 5826 5829 5833 5837 5840 5843 5846 5849 5852 5855 5858 5861 5864 5867
5787 5784 5782 5779 5777 5775 5773 5772 5771 5771 5771 5771 5771 5772 5773 5775 5777 5780 5783 5786 5790 5793 5796 5800 5803 5806 5810 5813 5817 5820 5823 5827 5830 5834 5837 5840 5843 5847 5850 5853 5856 5859 5861
5787 5784 5782 5779 5777 5775 5773 5772 5771 5770 5770 5770 5770 5770 5771 5772 5774 5776 5779 5782 5785 5788 5791 5794 5797 5800 5804 5807 5810 5813 5817 5820 5823 5827 5830 5833 5837 5840 5843 5846 5850 5852 5855
5787 5784 5782 5779 5777 5775 5773 5771 5770 5769 5769 5769 5769 5769 5769 5770 5771 5773 5775 5778 5780 5783 5785 5788 5791 5794 5797 5800 5803 5806 5809 5812 5816 5819 5823 5826 5830 5833 5836 5839 5843 5846 5848
5787 5785 5782 5779 5777 5775 5773 5771 5770 5768 5768 5767 5766 5766 5766 5767 5768 5770 5771 5773 5776 5778 5780 5783 5785 5788 5790 5793 5796 5798 5801 5804 5808 5811 5814 5818 5821 5825 5828 5831 5835 5838 5841
5787 5785 5782 5779 5777 5775 5773 5771 5769 5768 5766 5765 5764 5764 5763 5764 5764 5766 5767 5769 5771 5773 5775 5777 5779 5781 5783 5785 5788 5790 5793 5796 5799 5802 5806 5809 5813 5816 5819 5822 5826 5829 5832
5786 5784 5782 5779 5777 5774 5772 5770 5768 5767 5765 5764 5762 5761 5761 5760 5760 5761 5762 5764 5766 5768 5769 5771 5773 5774 5776 5778 5780 5782 5785 5788 5790 5793 5796 5800 5803 5807 5810 5813 5816 5820 5823
5786 5783 5781 5778 5776 5774 5771 5769 5767 5765 5764 5762 5760 5759 5758 5757 5757 5757 5758 5759 5761 5762 5764 5766 5767 5768 5770 5771 5773 5775 5777 5779 5782 5784 5787 5790 5794 5797 5800 5803 5807 5810 5813
5785 5782 5780 5777 5775 5773 5770 5768 5766 5764 5762 5760 5759 5757 5756 5755 5754 5754 5754 5755 5756 5758 5759 5760 5761 5762 5764 5765 5766 5768 5769 5771 5773 5776 5779 5782 5785 5787 5790 5793 5796 5799 5803
5784 5781 5778 5776 5774 5771 5769 5766 5764 5762 5760 5758 5757 5755 5754 5753 5752 5751 5751 5751 5752 5753 5754 5755 5756 5757 5758 5759 5760 5761 5762 5764 5766 5769 5770 5773 5775 5778 5780 5783 5786 5789 5792
5782 5780 5777 5775 5772 5770 5767 5764 5762 5760 5758 5756 5754 5753 5752 5751 5749 5748 5748 5748 5749 5749 5750 5751 5751 5751 5752 5753 5753 5754 5755 5756 5758 5760 5762 5764 5766 5768 5771 5773 5776 5778 5781
5780 5778 5775 5773 5770 5768 5765 5763 5760 5758 5756 5754 5752 5750 5749 5748 5747 5746 5745 5745 5745 5745 5746 5746 5746 5747 5747 5747 5748 5748 5749 5750 5751 5752 5754 5756 5758 5760 5762 5764 5766 5768 5770
5777 5775 5773 5771 5768 5766 5763 5761 5758 5756 5754 5751 5749 5748 5746 5745 5744 5743 5742 5742 5742 5742 5742 5742 5742 5742 5741 5742 5742 5742 5743 5744 5745 5745 5746 5748 5749 5751 5752 5754 5756 5758 5760
5774 5772 5770 5768 5766 5763 5761 5758 5756 5754 5751 5749 5747 5745 5743 5742 5741 5740 5739 5738 5738 5738 5737 5737 5737 5737 5737 5736 5736 5736 5737 5737 5737 5738 5739 5740 5741 5742 5744 5745 5746 5748 5749
Wind_Speed
18 18 18 17 17 18 19 21 22 23 23 23 24 24 24 25 26 25 25 24 23 21 20 19 18 17 17 17 17 17 16 15 14 14 13 12 11 11 10 10 9 8 7
18 17 17 16 16 17 17 19 20 22 22 22 23 24 24 25 25 25 25 25 24 22 22 20 19 19 18 18 18 18 17 17 16 15 14 13 12 12 11 11 10 9 8
18 17 16 15 15 16 16 16 18 19 20 21 22 23 24 25 25 26 25 25 25 24 23 21 20 19 19 19 19 19 18 18 18 16 16 14 13 13 12 12 11 9 9
18 17 16 15 14 14 14 14 16 18 19 19 21 23 23 25 25 27 26 25 25 25 23 22 21 21 20 20 20 20 19 18 19 18 17 16 15 14 13 13 12 10 10
17 16 15 13 12 11 12 13 14 16 18 18 20 21 22 24 25 27 27 26 25 25 24 23 22 21 21 20 20 21 19 19 19 19 18 17 16 16 15 14 13 12 11
16 15 14 12 11 10 10 11 11 13 16 17 18 20 21 23 24 26 27 27 26 25 25 24 23 22 22 22 21 21 21 20 20 20 19 18 17 17 17 16 15 14 13
16 15 13 11 10 9 9 9 9 11 13 15 17 18 20 22 22 24 26 27 26 26 25 25 24 24 23 23 23 22 22 21 20 21 20 19 19 18 18 18 17 16 14
15 15 14 11 10 8 7 7 7 9 11 12 15 17 19 20 22 23 25 27 26 26 25 25 26 25 24 23 24 24 24 22 22 21 22 21 20 20 19 19 18 17 16
15 14 13 12 9 7 6 6 5 7 9 11 13 14 17 19 21 23 24 26 27 27 26 25 26 26 25 25 25 25 25 24 23 23 22 23 22 21 21 20 20 18 17
15 14 13 12 9 7 7 6 5 5 7 9 12 13 15 17 19 22 23 25 26 26 26 25 26 26 25 26 26 26 25 26 25 24 23 23 23 23 23 22 21 20 19
15 14 13 11 9 7 6 5 5 5 6 8 10 12 14 16 17 20 22 24 25 25 25 25 26 27 27 27 26 26 26 26 26 27 25 25 25 25 24 24 23 22 20
15 14 13 11 9 8 6 5 5 5 5 7 9 11 13 15 17 18 20 22 23 24 25 26 26 26 28 29 28 28 28 28 27 27 28 27 27 26 26 25 25 24 23
14 14 13 11 10 9 7 6 5 5 5 5 7 9 11 13 16 17 19 21 22 23 24 26 26 27 28 29 29 29 29 30 29 29 28 29 29 28 28 27 26 26 25
14 14 13 12 11 10 9 7 6 5 5 5 6 7 9 11 14 16 18 20 22 23 24 25 26 27 28 28 30 31 30 30 31 31 31 31 30 30 30 29 28 28 27
15 14 13 13 12 11 10 8 7 6 6 6 6 7 8 10 12 14 17 18 20 22 23 24 25 27 28 28 30 31 32 32 31 32 33 33 33 32 32 32 31 30 30
15 14 14 14 13 11 10 9 8 7 7 7 7 8 9 10 11 13 16 17 19 20 21 23 25 27 28 29 30 32 33 33 33 33 33 34 35 35 34 34 34 33 33
15 14 14 14 14 12 11 10 9 9 8 8 8 8 9 10 11 13 15 17 18 19 21 22 24 26 27 28 30 32 33 34 35 35 36 35 36 36 36 36 36 36 35
15 14 14 14 14 13 12 11 10 10 9 9 8 8 9 10 11 13 15 16 18 19 20 21 23 24 25 27 29 31 33 34 35 35 36 36 37 38 38 38 38 38 37
15 14 14 14 14 13 13 12 11 11 10 10 9 10 10 11 11 12 15 17 18 19 19 20 21 23 24 25 26 28 31 33 34 35 36 37 37 38 39 39 39 39 39
15 15 15 14 14 14 13 13 12 12 11 10 10 10 10 11 11 11 13 15 17 18 18 19 20 21 22 23 24 26 28 30 32 33 34 35 36 38 39 40 40 40 40
16 15 15 15 15 14 14 14 13 13 12 11 11 11 11 10 11 11 12 13 15 16 17 18 19 21 22 23 24 25 26 27 30 32 33 34 35 37 38 40 40 40 41
16 16 16 15 15 15 15 15 14 14 13 12 12 11 11 11 11 11 11 12 13 14 16 17 18 20 22 22 23 24 25 27 27 29 31 33 35 36 37 38 39 40 40
16 16 16 16 16 16 15 15 15 15 14 14 12 12 11 11 11 11 11 12 12 14 15 16 17 18 19 20 22 23 24 25 26 28 30 30 33 34 35 36 38 38 39
16 16 16 16 16 16 16 16 16 15 15 14 13 12 12 11 11 11 11 11 12 12 13 15 16 17 17 18 20 21 22 24 25 27 28 30 31 32 34 35 36 37 39
16 16 16 16 16 16 16 16 16 16 16 15 14 13 13 12 12 11 12 12 13 13 14 15 16 18 18 18 19 21 22 23 24 25 27 29 31 32 33 34 36 37 38
17 17 16 16 16 16 16 16 17 17 16 16 15 14 14 13 13 13 13 13 14 14 14 15 16 17 18 19 20 21 22 23 24 25 27 28 29 31 32 33 34 35 37
Wind_Direction
309 301 296 288 277 270 263 257 253 247 245 240 237 235 230 228 227 225 223 222 221 220 221 220 219 217 215 214 212 212 211 211 209 206 202 200 198 197 195 191 190 190 188
314 308 300 292 282 274 266 258 253 249 245 241 235 231 228 227 225 225 223 222 221 220 220 220 219 218 218 216 214 214 214 213 211 210 207 206 205 204 200 198 196 196 195
318 313 305 296 287 279 270 261 253 248 243 239 234 231 229 226 223 223 222 223 221 219 219 219 218 217 219 217 216 215 216 215 214 212 211 210 210 206 205 203 201 202 201
322 317 312 302 292 282 273 264 255 246 242 239 234 230 229 226 223 220 220 221 219 218 218 219 220 219 218 217 216 216 217 216 215 214 214 214 213 211 209 207 207 208 207
330 325 319 309 297 287 276 267 258 246 240 237 231 229 229 227 225 221 219 219 218 217 218 219 219 220 220 218 217 217 218 217 215 214 214 214 214 214 212 210 212 212 211
333 331 326 317 305 295 282 269 259 247 240 236 230 228 228 226 225 221 219 218 218 218 220 221 222 222 221 221 221 218 219 217 216 215 215 215 217 217 217 216 216 214 216
337 336 333 327 315 303 289 274 260 247 240 235 231 228 225 223 223 220 219 219 219 218 220 223 224 224 222 222 221 219 218 219 217 217 218 218 220 220 219 220 218 218 220
340 340 338 333 327 316 303 285 259 245 238 235 233 230 225 223 220 219 219 218 220 220 220 223 224 225 224 223 221 219 220 221 221 220 221 221 221 221 221 221 219 220 222
343 343 343 340 336 328 315 299 274 248 240 236 233 230 225 222 220 220 218 218 219 220 221 223 224 225 225 224 222 220 222 223 224 224 225 223 222 224 223 223 222 222 224
346 346 346 346 342 333 322 307 285 264 248 241 234 230 227 222 221 222 219 217 219 221 223 224 223 223 224 223 223 224 226 226 226 225 227 226 225 226 226 225 225 225 226
349 349 349 350 350 342 329 312 293 281 259 245 237 233 231 226 224 223 221 220 220 222 224 224 224 225 225 223 224 225 227 228 229 228 228 229 228 228 227 226 227 227 228
352 353 354 354 354 351 339 319 306 293 277 256 244 236 232 230 226 225 224 222 223 225 227 226 226 228 228 227 227 228 231 230 230 229 230 230 229 229 229 229 230 230 230
354 356 357 355 353 353 348 333 320 308 289 272 253 242 235 233 229 228 226 224 226 228 229 228 228 230 231 231 231 231 232 232 233 232 231 231 232 231 231 231 232 232 232
354 355 357 356 352 350 348 344 334 323 304 286 270 256 241 236 232 230 229 228 228 229 231 231 231 232 232 234 235 234 234 235 236 235 234 233 234 234 234 234 234 234 236
354 354 355 355 355 354 350 345 341 330 317 298 282 270 257 245 238 234 233 232 232 233 234 233 234 235 235 236 236 235 236 237 237 236 235 235 235 236 236 237 237 236 238
357 356 355 356 356 354 352 348 341 333 318 304 291 280 266 255 248 243 238 237 236 238 238 238 238 238 239 239 239 239 238 239 239 238 237 237 238 238 237 238 239 239 240
355 356 356 357 357 354 351 348 345 340 329 315 301 287 273 263 255 249 246 244 242 243 243 243 242 241 242 242 242 241 240 240 241 240 240 240 240 240 239 239 241 241 241
353 353 353 355 356 356 352 347 344 341 334 323 311 298 283 271 260 252 249 248 248 248 248 246 245 245 246 246 245 244 243 243 243 242 242 242 243 243 242 242 243 244 242
350 351 351 351 352 353 352 349 345 341 335 326 317 306 294 283 274 262 253 250 250 251 251 251 251 250 249 249 249 247 245 243 243 244 244 244 244 245 244 243 244 244 244
348 348 348 348 348 348 348 345 343 341 337 331 323 315 306 295 286 274 262 257 253 252 253 255 255 253 251 251 252 251 249 246 245 245 245 245 246 246 245 244 244 245 246
346 346 347 346 345 344 343 341 339 338 334 330 325 318 313 305 297 285 273 265 260 257 257 258 258 257 256 254 253 252 250 248 247 245 245 246 247 247 248 246 245 246 247
341 342 343 344 344 342 341 340 338 337 333 328 323 317 313 307 301 291 282 273 266 263 263 263 263 261 261 258 255 253 251 250 248 248 247 248 247 247 247 246 246 247 248
336 337 338 339 339 339 339 339 337 335 332 329 322 316 311 308 302 295 286 279 272 269 267 267 266 265 264 262 259 256 255 253 252 250 250 251 250 248 247 247 247 249 249
330 333 333 334 334 335 336 336 335 333 331 327 323 319 313 306 302 298 291 286 281 279 276 273 272 270 270 269 265 261 259 257 257 256 254 254 254 252 250 249 250 252 252
322 326 328 329 330 331 332 333 333 333 330 327 324 318 313 307 301 297 294 290 286 281 278 277 277 273 272 272 270 267 264 263 262 262 260 258 257 256 255 254 255 255 255
316 318 321 324 326 327 328 330 330 330 329 328 325 320 314 308 301 298 295 291 288 286 283 282 280 277 275 273 272 272 270 267 265 265 264 263 261 261 258 258 258 257 256